Powrót do katalogu

STARLINK-5171

AktywnyŁącznośćVLEO
NORAD 54077·PAYLOAD·🇺🇸 United States

Wystrzelony Oct 20, 2022 z Cape Canaveral Space Force Station

Loading…

Następne Przeloty (najbliższe 24 godziny)

TLE

ŚwieżeSource: CelesTrak SupGP

Epoka: Sep 14, 2026, 21:07 UTC

1 54077C 22136AC  26257.88034722 -.00034150  00000+0 -21416-2 0  2570
2 54077  53.1591 189.8174 0001487  96.3359  91.2831 15.08852246    18

Śledź STARLINK-5171 w czasie rzeczywistym z AllMySat

Download on the App Store